Regional Weather Roundup
Issued by NWS

Home | Current Version | Previous Version | Graphics & Text | Print | Product List | Glossary On
Versions: 1 2 3 4 5 6 7 8 9 10 11 12 13 14 15 16 17 18 19 20 21 22 23 24 25 26 27 28 29 30 31 32 33 34 35 36 37 38 39 40 41 42 43 44 45 46 47 48 49 50
000
ASUS43 KMKX 080411
RWRWI

WISCONSIN REGIONAL WEATHER ROUNDUP
NATIONAL WEATHER SERVICE MILWAUKEE/SULLIVAN WI
1000 PM CST WED DEC 07 2016

NOTE: "FAIR" INDICATES FEW OR NO CLOUDS BELOW 12,000 FEET WITH NO
SIGNIFICANT WEATHER AND/OR OBSTRUCTIONS TO VISIBILITY.

WIZ001-002-006>008-014>016-023>028-080500-
NORTHWEST WISCONSIN

CITY           SKY/WX    TMP DP  RH WIND       PRES   REMARKS
SUPERIOR ARPT  CLOUDY    19  14  79 W13       29.97R WCI   7
ASHLAND        LGT SNOW  18  13  80 SW16      29.92S WCI   3
HAYWARD        LGT SNOW  16  11  80 SW10      29.96S WCI   4
SIREN          LGT SNOW  17  12  81 W15       30.03R WCI   2
CUMBERLAND     LGT SNOW  14  10  85 W16       30.00S WCI  -2
RICE LAKE      LGT SNOW  16  10  78 W14G20    30.03S WCI   1
CHETEK         FLURRIES  15  10  78 W7        30.03S WCI   6
LADYSMITH      FLURRIES  16  10  78 W12G18    30.00R WCI   3
EAU CLAIRE     FLURRIES  17   9  70 W16G24    30.06R WCI   2
MENOMONIE      FLURRIES  18  11  74 W14G24    30.07S WCI   4
NEW RICHMOND   FLURRIES  17  10  74 W16G23    30.07S WCI   1
OSCEOLA        FLURRIES  17  11  77 W12G20    30.11S WCI   4
$$

WIZ003>005-009-010-017-018-080500-
NORTH CENTRAL WISCONSIN

CITY           SKY/WX    TMP DP  RH WIND       PRES   REMARKS
MANITOWISH WTR LGT SNOW  15  12  90 W9        29.86S WCI   3
ARBOR VITAE    LGT SNOW  17  12  80 W12G20    29.88R WCI   4
WOODRUFF       LGT SNOW  17  12  80 W12G20    29.88R WCI   4
RHINELANDER    FLURRIES  17  12  80 W17       29.89R WCI   1
EAGLE RIVER    LGT SNOW  16  10  77 W15G21    29.85S WCI   1
LAND O LAKES   FLURRIES  16  12  83 W8G17     29.85S WCI   5
PHILLIPS       LGT SNOW  14  10  83 W9G16     29.92R WCI   2
TOMAHAWK       FLURRIES  16  10  79 W9        29.92S WCI   4
MEDFORD        FLURRIES  15   9  76 W14G20    29.95S WCI   0
MERRILL        FLURRIES  17  11  78 W15       29.95S WCI   2
$$

WIZ029-030-035-036-043>047-080500-
CENTRAL WISCONSIN

CITY           SKY/WX    TMP DP  RH WIND       PRES   REMARKS
WAUSAU         FLURRIES  17  11  77 W21G28    29.96R WCI   0
MOSINEE        FLURRIES  18  12  79 W18G24    29.98R WCI   2
MARSHFIELD     CLOUDY    17  10  74 W16G29    29.98R WCI   2
STEVENS POINT  CLOUDY    17  10  74 W9G21     30.00S WCI   6
WAUPACA        CLOUDY    22  13  67 W14G20    30.02S WCI  10
WAUTOMA        FLURRIES  20  13  74 W14       30.05  WCI   7
WISC RAPIDS    CLOUDY    19  12  74 W16G23    30.03S WCI   4
CAMP DOUGLAS   FLURRIES  19  12  73 W16       30.06S WCI   5
$$

WIZ011>013-019>022-031-037>040-048>050-080500-
NORTHEAST WISCONSIN

CITY           SKY/WX    TMP DP  RH WIND       PRES   REMARKS
ANTIGO         FLURRIES  16  10  80 W16G24    29.91S WCI   0
SHAWANO        CLOUDY    23  13  65 W10G23    29.98R WCI  12
OCONTO         CLOUDY    22  12  64 W18G26    29.97S WCI   8
STURGEON BAY   FLURRIES  23  14  68 W18G25    29.95S WCI   9
GREEN BAY      FLURRIES  23  14  68 W22G29    29.99S WCI   8
MANITOWOC      FLURRIES  23  15  71 MISG      30.01S
APPLETON       CLOUDY    19  10  68 W17G25    29.99S WCI   4
CLINTONVILLE   CLOUDY    21  12  68 W14G24    29.99S WCI   8
OSHKOSH        CLOUDY    21  11  65 W13G23    30.02S WCI   9
$$

WIZ032>034-041-042-053>061-080500-
SOUTHWEST WISCONSIN

CITY           SKY/WX    TMP DP  RH WIND       PRES   REMARKS
LA CROSSE      CLOUDY    21  11  65 W14G22    30.14R WCI   8
SPARTA         FLURRIES  20  14  76 W13       30.10S WCI   7
VIROQUA        CLOUDY    18  11  74 W14       30.08F WCI   5
BOSCOBEL       FLURRIES  22  12  65 W12       30.15S WCI  10
PRAIRIE DU CHI FLURRIES  22  13  69 NW13G18   30.17R WCI  10
PLATTEVILLE    CLOUDY    22  16  78 W13       30.13S WCI  10
$$

WIZ056-057-062-063-064-067-068-080500-
SOUTH CENTRAL WISCONSIN

CITY           SKY/WX    TMP DP  RH WIND       PRES   REMARKS
REEDSBURG      FLURRIES  20  13  73 W13       30.08S WCI   7
BARABOO/DELLS  FLURRIES  20  13  72 W13G20    30.07S WCI   7
LONE ROCK      CLOUDY    22  12  65 W12       30.12S WCI  10
MINERAL POINT  CLOUDY    23  16  74 W16G22    30.09S WCI  10
MADISON        FLURRIES  21  11  65 W12G23    30.08F WCI   9
MIDDLETON      CLOUDY    22  17  79 W9        30.09S WCI  12
WATERTOWN      FLURRIES  20  13  75 W15G21    30.07F WCI   7
MONROE         FLURRIES  23  16  74 W17G25    30.10S WCI   9
JANESVILLE     FLURRIES  25  18  74 W13G22    30.11S WCI  13
$$

WIZ051-052-058>065-066-070>072-080500-
SOUTHEAST WISCONSIN

CITY           SKY/WX    TMP DP  RH WIND       PRES   REMARKS
MILWAUKEE      FLURRIES  23  12  62 W13G26    30.08S WCI  11
WAUKESHA       CLOUDY    19  14  79 W18G24    30.07S WCI   4
MILWAUKEE/TIMM CLOUDY    23  12  63 W17G26    30.08S WCI   9
RACINE         CLOUDY    22  12  65 W20G29    30.10S WCI   7
BURLINGTON     FLURRIES  22  14  72 W17G24    30.09S WCI   7
KENOSHA        CLOUDY    22  13  68 W25       30.09S WCI   5
FOND DU LAC    MIX PCPN  21  10  62 W16G22    30.04S WCI   7
SHEBOYGAN      FLURRIES  22  13  68 W20G25    30.03S WCI   7
WEST BEND      FLURRIES  21  14  73 W16       30.04S WCI   7
JUNEAU         FLURRIES  19  13  75 W12       30.07S WCI   7
$$

LSZ147-162-080500-
LAKE SUPERIOR

STATION/POSITION TIME  TEMP    WIND        PRES    WAVE
                       AIR SEA DIR/SP/G            HT/PER
                 (UTC) (F)     (DEG/KT/KT) (MB)    (FT/S)
DEVILS ISLAND    0400   26     290/ 20/ 23 1012.6R
PORT WING        0330   20     230/ 12/ 18 1013.9R
SAXON HARBOR     0340   18     230/  6/ 11 1013.2R
$$

LMZ867-665-643>646-080500-
LAKE MICHIGAN

STATION/POSITION TIME  TEMP    WIND        PRES    WAVE
                       AIR SEA DIR/SP/G            HT/PER
                 (UTC) (F)     (DEG/KT/KT) (MB)    (FT/S)
CHAMBERS ISLAND  0340   24     230/ 11/ 19 1013.2R
NORTHPORT PIER   0349   25     260/  9/ 19 1013.2S
SISTER BAY       0336   26     300/ 23/ 28   N/A
KEWAUNEE LAKESHO 0342   23     310/ 12/ 21 1014.9R
SHEBOYGAN LAKESH 0400   22     260/ 16/ 23 1017.9S
PORT WASHINGTON  0330   22     270/ 13/ 24 1018.6F
MILWAUKEE LAKESH 0350   23     280/ 13/ 18   N/A
KENOSHA   LAKESH 0400   23     270/ 16/ 25 1019.3
$$

TC  - TEMPERATURE IN CELSIUS
VSB - VISIBILITY IN STATUTE MILES
WCI - WIND CHILL INDEX
HX  - HEAT INDEX




USA.gov is the U.S. government's official web portal to all federal, state and local government web resources and services.